Regional Weather Roundup
Issued by NWS Midland/Odessa, TX

Skip options and go directly to product.
Home | Oldest Version | Previous Version | Current Version | All | Graphics & Text | Save Text | Print | Product List | Glossary On

Skip product version selection by date and time.   
980
ASUS44 KMAF 272210
RWRMAF
MIDLAND AREA WEATHER ROUNDUP
NATIONAL WEATHER SERVICE MIDLAND TX
500 PM CDT SAT AUG 27 2016

...IN SOUTHWEST TEXAS AND SOUTHEAST NEW MEXICO...

CITY           SKY/WX    TMP DP  RH WIND       PRES   REMARKS
ALPINE         MOSUNNY   82  56  41 E6        30.13F
ANDREWS        NOT AVBL
ARTESIA        SUNNY     86  59  39 S10G16    30.00F
BIG SPRING     PTSUNNY   84  64  49 E14G24    30.00S
CARLSBAD       SUNNY     86  59  39 SE6       29.98F
DRYDEN           N/A     90  67  46 SE10G16   29.94F
FORT STOCKTON  SUNNY     87  62  43 S12       29.99F
GUAD PASS      SUNNY     77  59  53 E16       30.14F
HOBBS          MOSUNNY   84  57  39 SE6       30.03F
MARFA          MOSUNNY  N/A N/A N/A CALM      30.10F
MIDLAND AIRPK  MOSUNNY   93  54  27 S5        29.98F
MIDLAND INTL   SUNNY     90  55  30 S8        29.98F
ODESSA         CLOUDY    89  59  36 SE7       29.99F
PECOS          SUNNY     89  58  34 SW3       29.95F
PRESIDIO       NOT AVBL
SEMINOLE       SUNNY     87  54  32 S8        30.02F
SNYDER           N/A     80  68  67 CALM      30.00F
WINK           SUNNY     90  56  31 E5        29.96F
$$
...OTHER STATIONS IN TEXAS...

CITY           SKY/WX    TMP DP  RH WIND       PRES   REMARKS
ABILENE        RAIN      70  68  93 S3        30.00F
AMARILLO       SUNNY     82  60  47 S15       30.03S
AUSTIN         MOSUNNY   91  70  49 VRB5      29.90F
BROWNSVILLE    SUNNY     92  73  53 E15       29.86F HX 100
CORPUS CHRISTI MOSUNNY   92  75  57 E13G21    29.87F HX 103
DALLAS FTW     MOSUNNY   91  69  48 SE9       29.93F
DEL RIO        MOSUNNY   92  68  45 E10       29.89F
EL PASO        MOSUNNY   88  54  31 E3        29.99F
HOUSTON INT    PTSUNNY   88  72  58 NE9       29.91S
LUBBOCK        MOSUNNY   88  58  36 S10G20    30.01F
SAN ANGELO     LGT RAIN  78  70  76 W3        29.96F
SAN ANTONIO    MOSUNNY   90  70  51 E9        29.91F
WACO           MOSUNNY   90  70  51 NE5       29.92F
WICHITA FALLS  NOT AVBL
$$
...OTHER LOCATIONS IN NEW MEXICO...

CITY           SKY/WX    TMP DP  RH WIND       PRES   REMARKS
ALAMAGORDO     CLOUDY    86  54  32 S3        30.03F
ALBUQUERQUE    CLOUDY    82  42  24 SW9       30.09F
CANNON AFB     MOSUNNY   89  52  28 S14       30.03F
CLOVIS         CLOUDY    84  57  39 SE15      30.04F
HOLLOMAN AFB   NOT AVBL
ROSWELL        MOSUNNY   86  56  35 S12       30.00F
RUIDOSO          N/A     70  50  49 SW8       30.24F
SANTA FE       CLOUDY    78  47  33 VRB6      30.15F
TRUTH OR CONSE PTSUNNY   78  49  35 NW9       30.08F
TUCUMCARI      SUNNY     91  50  24 S17       29.98F
$$

USA.gov is the U.S. government's official web portal to all federal, state and local government web resources and services.